Metropolis, IL

8:50 PM CDT on October 19, 2019 (GMT -0500)
Metropolis

Weather History for KM30 - August, 2019

Change the Weather History Date:

Tuesday, August 13, 2019

  Actual Average (WUND) Record (WUND)
Temperature  
Mean Temperature 83 °F -  
Max Temperature 91 °F - - (-1)
Min Temperature 75 °F - - (-1)
Cooling Degree Days 18    
Growing Degree Days 33 (Base 50)    
Moisture  
Dew Point 75 °F    
Average Humidity 77    
Maximum Humidity 95    
Minimum Humidity 55    
Precipitation  
Precipitation 0.00 in - - ()
Sea Level Pressure  
Sea Level Pressure 29.87 in    
Wind  
Wind Speed 4 mph (West)    
Max Wind Speed 9 mph    
Max Gust Speed -    
Visibility 8 miles    
Events Thunderstorm    
Averages and records for this station are not official NWS values.
T = Trace of Precipitation, MM = Missing Value Source: NWS Daily Summary

Daily Weather History Graph

Daily Weather History Graph

Search for Another Location

Airport or City:

Astronomy

Aug. 13, 2019 Rise Set
Actual Time 6:09 AM CDT 7:49 PM CDT
Civil Twilight 5:41 AM CDT 8:17 PM CDT
Nautical Twilight 5:08 AM CDT 8:50 PM CDT
Astronomical Twilight 4:32 AM CDT 9:26 PM CDT
Moon 7:01 PM CDT (8/13) 4:14 AM CDT (8/13)
Length of Visible Light 14h 35m
Length of Day
13h 39m
Waxing Gibbous, 97% of the Moon is Illuminated
Aug 13
Waxing Gibbous
Aug 15
Full
Aug 23
Last Quarter
Aug 30
New
Sep 5
First Quarter

Hourly Weather History & Observations

Time (CDT) Temp. Heat Index Dew Point Humidity Pressure Visibility Wind Dir Wind Speed Gust Speed Precip Events Conditions
12:15 AM 82.2 °F 91.6 °F 78.4 °F 88% 29.85 in 10.0 mi South 3.5 mph - N/A   Clear
12:35 AM 81.9 °F 90.8 °F 78.4 °F 89% 29.85 in 10.0 mi South 4.6 mph - N/A   Clear
1:15 AM 81.1 °F 89.1 °F 78.3 °F 91% 29.85 in 10.0 mi SSW 5.8 mph - N/A   Clear
1:35 AM 81.0 °F 88.6 °F 78.3 °F 91% 29.85 in 10.0 mi South 3.5 mph - N/A   Clear
1:55 AM 80.8 °F 88.2 °F 78.3 °F 92% 29.84 in 10.0 mi South 3.5 mph - N/A   Clear
2:15 AM 80.6 °F 87.5 °F 77.9 °F 91% 29.84 in 10.0 mi South 3.5 mph - N/A   Clear
2:35 AM 80.6 °F 87.5 °F 77.9 °F 91% 29.83 in 10.0 mi SSW 4.6 mph - N/A   Clear
2:55 AM 80.4 °F 87.2 °F 77.9 °F 92% 29.83 in 10.0 mi SSW 4.6 mph - N/A   Clear
3:15 AM 80.8 °F 87.8 °F 77.7 °F 90% 29.83 in 10.0 mi Calm Calm - N/A   Clear
3:35 AM 80.6 °F 87.3 °F 77.4 °F 90% 29.83 in 10.0 mi SSW 4.6 mph - N/A   Clear
3:55 AM 80.8 °F 87.6 °F 77.2 °F 89% 29.83 in 10.0 mi SSW 4.6 mph - N/A   Clear
4:15 AM 81.0 °F 87.9 °F 77.2 °F 88% 29.82 in 10.0 mi SW 3.5 mph - N/A   Mostly Cloudy
4:55 AM 80.6 °F 87.1 °F 77.0 °F 89% 29.83 in 10.0 mi SW 4.6 mph - N/A   Clear
5:15 AM 80.8 °F 87.2 °F 76.6 °F 87% 29.83 in 10.0 mi SSW 6.9 mph - N/A   Clear
5:35 AM 81.0 °F 87.5 °F 76.3 °F 86% 29.82 in 10.0 mi SW 5.8 mph - N/A   Clear
5:55 AM 81.0 °F 87.5 °F 76.3 °F 86% 29.83 in 10.0 mi SW 5.8 mph - N/A   Clear
6:15 AM 81.5 °F 88.5 °F 76.3 °F 84% 29.85 in 10.0 mi WSW 5.8 mph - N/A   Mostly Cloudy
6:35 AM 81.3 °F 88.3 °F 76.5 °F 85% 29.86 in 10.0 mi West 6.9 mph - N/A Thunderstorm Thunderstorm
6:55 AM 81.0 °F 87.7 °F 76.8 °F 87% 29.88 in 10.0 mi NW 5.8 mph - N/A Thunderstorm Mostly Cloudy
7:15 AM 80.6 °F 87.1 °F 77.0 °F 89% 29.89 in 7.0 mi NNW 8.1 mph - N/A   Overcast
7:35 AM 79.7 °F - 75.4 °F 87% 29.89 in 10.0 mi North 3.5 mph - N/A   Mostly Cloudy
7:55 AM 79.0 °F - 72.0 °F 79% 29.90 in 10.0 mi North 8.1 mph - N/A   Mostly Cloudy
8:15 AM 78.1 °F - 72.7 °F 83% 29.89 in 10.0 mi North 6.9 mph - N/A   Scattered Clouds
8:35 AM 79.0 °F - 73.4 °F 83% 29.88 in 10.0 mi East 5.8 mph - N/A   Clear
8:55 AM 80.1 °F 84.5 °F 73.6 °F 81% 29.87 in 10.0 mi East 4.6 mph - N/A   Clear
9:15 AM 81.5 °F 87.2 °F 74.1 °F 78% 29.88 in 10.0 mi ESE 4.6 mph - N/A   Clear
9:35 AM 82.0 °F 88.1 °F 74.1 °F 77% 29.88 in 10.0 mi SE 4.6 mph - N/A   Scattered Clouds
9:55 AM 82.0 °F 87.9 °F 73.8 °F 76% 29.90 in 10.0 mi Calm Calm - N/A   Scattered Clouds
10:15 AM 82.8 °F 89.2 °F 74.3 °F 75% 29.90 in 10.0 mi Calm Calm - N/A   Clear
10:35 AM 83.7 °F 90.4 °F 73.9 °F 72% 29.89 in 10.0 mi SSE 5.8 mph - N/A   Clear
10:55 AM 85.5 °F 93.8 °F 74.8 °F 70% 29.89 in 10.0 mi SSW 5.8 mph - N/A   Scattered Clouds
11:15 AM 86.0 °F 92.6 °F 72.7 °F 64% 29.90 in 10.0 mi Calm Calm - N/A   Clear
11:35 AM 87.4 °F 95.3 °F 73.4 °F 63% 29.89 in 10.0 mi WSW 3.5 mph - N/A   Clear
11:55 AM 88.2 °F 96.4 °F 73.8 °F 62% 29.89 in 10.0 mi WSW 4.6 mph - N/A   Scattered Clouds
12:15 PM 88.5 °F 95.3 °F 72.1 °F 58% 29.89 in 10.0 mi WNW 3.5 mph - N/A   Mostly Cloudy
12:35 PM 89.1 °F 95.0 °F 71.2 °F 55% 29.89 in 10.0 mi West 8.1 mph - N/A   Scattered Clouds
12:55 PM 89.6 °F 96.2 °F 71.4 °F 55% 29.88 in 7.0 mi West 5.8 mph - N/A   Clear
1:15 PM 90.3 °F 98.2 °F 72.7 °F 56% 29.88 in 4.0 mi WNW 5.8 mph - N/A   Haze
1:35 PM 89.8 °F 97.0 °F 72.1 °F 56% 29.87 in 4.0 mi WSW 8.1 mph - N/A   Haze
1:55 PM 90.3 °F 98.7 °F 73.4 °F 57% 29.88 in 4.0 mi WNW 9.2 mph - N/A   Haze
2:15 PM 90.9 °F 100.0 °F 73.8 °F 57% 29.87 in 4.0 mi West 8.1 mph - N/A   Haze
2:35 PM 91.4 °F 100.7 °F 73.8 °F 56% 29.87 in 4.0 mi West 9.2 mph - N/A   Haze
2:55 PM 90.7 °F 100.7 °F 74.7 °F 59% 29.87 in 4.0 mi NW 8.1 mph - N/A   Haze
3:15 PM 90.7 °F 101.3 °F 74.8 °F 60% 29.87 in 3.0 mi NW 6.9 mph - N/A   Haze
3:35 PM 88.2 °F 96.9 °F 74.1 °F 63% 29.87 in 3.0 mi NW 6.9 mph - N/A   Haze
3:55 PM 89.2 °F 97.9 °F 73.9 °F 60% 29.86 in 3.0 mi NW 6.9 mph - N/A   Haze
4:15 PM 89.1 °F 98.5 °F 74.3 °F 62% 29.86 in 3.0 mi WNW 6.9 mph - N/A   Haze
4:35 PM 90.1 °F 100.0 °F 74.5 °F 60% 29.86 in 4.0 mi NNW 6.9 mph - N/A   Haze
4:55 PM 90.0 °F 100.7 °F 75.2 °F 62% 29.86 in 4.0 mi NW 3.5 mph - N/A   Haze
5:15 PM 89.8 °F 99.7 °F 74.8 °F 61% 29.86 in 4.0 mi NNW 8.1 mph - N/A   Haze
5:35 PM 88.9 °F 98.6 °F 75.0 °F 63% 29.86 in 4.0 mi NNW 5.8 mph - N/A   Haze
5:55 PM 88.9 °F 98.6 °F 75.0 °F 63% 29.86 in 5.0 mi NNW 4.6 mph - N/A   Haze
6:15 PM 88.5 °F 97.8 °F 74.5 °F 63% 29.87 in 7.0 mi NNW 5.8 mph - N/A   Clear
6:35 PM 87.6 °F 96.2 °F 74.1 °F 64% 29.88 in 7.0 mi NW 4.6 mph - N/A   Clear
7:15 PM 86.0 °F 94.6 °F 74.7 °F 69% 29.88 in 7.0 mi North 4.6 mph - N/A   Scattered Clouds
7:35 PM 84.4 °F 92.4 °F 74.8 °F 73% 29.88 in 10.0 mi Calm Calm - N/A   Scattered Clouds
7:55 PM 83.3 °F 90.8 °F 75.0 °F 76% 29.88 in 10.0 mi Calm Calm - N/A   Scattered Clouds
8:15 PM 82.0 °F 88.6 °F 75.0 °F 79% 29.88 in 10.0 mi Calm Calm - N/A   Clear
8:35 PM 80.8 °F 86.5 °F 75.0 °F 83% 29.89 in 7.0 mi Calm Calm - N/A   Clear
8:55 PM 79.3 °F - 74.8 °F 86% 29.90 in 10.0 mi Calm Calm - N/A   Clear
9:15 PM 79.0 °F - 74.8 °F 87% 29.91 in 10.0 mi Calm Calm - N/A   Clear
9:35 PM 78.1 °F - 74.3 °F 88% 29.91 in 10.0 mi Calm Calm - N/A   Clear
9:55 PM 77.5 °F - 74.5 °F 90% 29.92 in 10.0 mi Calm Calm - N/A   Clear
10:15 PM 77.2 °F - 74.5 °F 91% 29.93 in 10.0 mi Calm Calm - N/A   Clear
10:35 PM 75.6 °F - 73.0 °F 92% 29.94 in 10.0 mi Calm Calm - N/A   Clear
10:55 PM 75.6 °F - 73.9 °F 95% 29.94 in 10.0 mi Calm Calm - N/A   Clear
11:15 PM 75.7 °F - 73.6 °F 93% 29.96 in 10.0 mi Calm Calm - N/A   Clear
11:55 PM 75.0 °F - 73.4 °F 95% 29.96 in 10.0 mi Calm Calm - N/A   Clear